Date,TemperatureHighF,TemperatureAvgF,TemperatureLowF,DewpointHighF,DewpointAvgF,DewpointLowF,HumidityHigh,HumidityAvg,HumidityLow,PressureMaxIn,PressureMinIn,WindSpeedMaxMPH,WindSpeedAvgMPH,GustSpeedMaxMPH,PrecipitationSumIn
2013-1-1,29.8,16.6,6.8,15.1,8.0,1.8,83,70,48,30.60,30.44,8,0,10,0.01
2013-1-2,35.7,20.9,8.7,13.9,7.9,1.5,73,58,36,30.67,30.51,9,0,13,0.00
2013-1-3,37.5,18.9,4.6,9.6,3.8,-3.0,74,55,24,30.69,30.55,6,0,11,0.00
2013-1-4,46.0,23.2,9.5,16.8,9.2,3.2,76,59,23,30.60,30.36,3,0,4,0.01
2013-1-5,40.6,23.4,11.4,16.5,10.1,4.1,74,59,34,30.62,30.39,13,1,19,0.00
2013-1-6,42.6,22.6,6.8,16.8,9.4,0.3,76,60,30,30.62,30.26,5,0,7,0.00
2013-1-7,52.3,34.6,23.3,24.1,14.9,9.9,68,48,19,30.28,30.00,8,1,13,0.00
2013-1-8,52.1,36.8,24.8,22.1,17.7,14.7,68,48,28,30.41,29.98,26,4,31,0.00
2013-1-9,54.2,33.4,19.1,21.6,16.9,11.8,75,54,25,30.51,30.22,10,0,13,0.00
2013-1-10,38.3,27.1,15.8,21.7,16.4,9.1,77,64,48,30.22,29.70,16,0,22,0.00
2013-1-11,42.5,23.6,8.0,23.5,12.7,2.5,79,65,20,30.12,29.52,30,5,36,0.00
2013-1-12,16.6,9.0,3.3,7.0,2.1,-2.0,87,73,62,30.52,30.13,11,2,14,0.00
2013-1-13,15.5,7.6,-1.0,5.6,-0.4,-6.0,83,69,53,30.64,30.50,7,1,11,0.00
2013-1-14,15.8,6.4,-1.0,4.7,-1.6,-7.0,77,69,51,30.69,30.56,8,1,9,0.00
2013-1-15,30.8,15.8,-5.0,14.4,3.0,-11.0,77,58,38,30.67,30.55,9,0,14,0.00
2013-1-16,54.4,35.1,20.1,24.8,17.8,10.8,69,52,28,30.58,30.41,6,1,11,0.00
2013-1-17,49.2,30.1,15.3,22.1,16.0,9.4,82,59,30,30.70,30.49,7,0,10,0.00
2013-1-18,62.4,35.3,16.6,20.4,9.9,5.6,72,41,13,30.48,30.25,21,2,29,0.00
2013-1-19,59.0,41.4,22.7,15.3,10.1,5.2,55,29,14,30.38,30.25,13,2,17,0.00
2013-1-20,47.9,31.3,17.0,16.2,11.5,6.2,65,46,24,30.50,30.28,10,1,17,0.00
2013-1-21,52.9,31.0,10.7,19.0,10.8,4.4,80,48,21,30.50,30.29,6,0,11,0.00
2013-1-22,59.0,41.2,21.6,17.7,10.9,0.1,60,32,13,30.29,30.17,19,2,23,0.00
2013-1-23,64.4,47.2,24.8,15.2,8.6,1.2,52,24,10,30.32,30.21,27,8,34,0.00
2013-1-24,61.8,39.4,20.6,19.8,13.3,9.0,67,39,13,30.27,30.07,8,1,13,0.00
2013-1-25,51.5,37.6,27.7,28.2,23.2,17.0,71,57,39,30.32,30.19,7,1,12,0.00
2013-1-26,51.5,38.2,25.1,30.6,25.1,18.0,79,61,39,30.24,29.90,9,0,13,0.00
2013-1-27,58.0,40.5,28.9,35.9,28.5,18.9,85,64,33,29.90,29.79,12,1,18,0.00
2013-1-28,49.6,32.3,23.1,30.0,22.7,15.1,83,69,43,29.95,29.70,18,2,19,0.00
2013-1-29,32.0,24.6,16.1,21.6,14.6,5.3,85,67,42,30.25,29.91,28,4,31,0.06
2013-1-30,36.4,23.2,6.4,17.1,10.4,0.9,80,59,42,30.26,30.15,13,1,19,0.00
2013-1-31,49.3,32.1,20.9,24.1,18.9,12.8,79,60,30,30.37,30.18,13,1,17,0.00
2013-2-1,56.2,33.2,17.5,25.0,17.6,12.6,86,58,25,30.41,30.25,29,4,37,0.00
2013-2-2,56.2,36.0,17.9,23.2,17.5,11.4,80,51,20,30.50,30.38,9,1,13,0.00
2013-2-3,46.0,31.9,19.8,19.6,14.7,9.1,72,51,30,30.46,30.08,5,0,11,0.00
2013-2-4,57.5,36.0,21.1,16.1,11.9,7.7,62,40,17,30.21,30.02,11,1,22,0.00
2013-2-5,57.4,40.6,21.4,21.6,16.5,10.2,69,40,23,30.24,29.97,13,1,14,0.00
2013-2-6,53.5,39.9,26.7,30.0,22.9,15.5,80,53,28,30.22,29.91,14,1,17,0.00
2013-2-7,48.5,33.4,18.2,30.2,17.0,8.7,85,55,25,30.34,30.22,11,1,15,0.00
2013-2-8,52.9,30.7,15.0,17.3,9.8,5.0,70,46,17,30.25,29.93,9,1,13,0.00
2013-2-9,40.6,27.7,16.2,26.3,16.7,5.6,82,64,42,29.95,29.76,10,1,14,0.00
2013-2-10,38.2,28.4,18.3,18.8,11.6,6.4,82,52,27,30.33,29.84,20,5,27,0.00
2013-2-11,28.7,21.4,13.3,17.1,12.5,7.7,81,69,51,30.38,30.28,7,1,13,0.01
2013-2-12,45.7,24.4,6.0,15.1,4.0,-2.0,82,49,14,30.43,30.33,9,1,14,0.00
2013-2-13,53.0,29.7,12.7,16.6,10.0,2.9,71,46,20,30.36,30.16,26,2,34,0.00
2013-2-14,34.5,25.0,18.7,21.9,16.7,11.3,81,71,48,30.59,30.25,25,2,31,0.02
2013-2-15,46.2,26.8,12.6,19.6,12.7,5.9,82,60,20,30.65,30.50,21,2,33,0.01
2013-2-16,60.9,35.5,14.7,20.6,13.3,6.7,79,46,16,30.51,30.15,22,2,30,0.00
2013-2-17,67.0,45.7,29.2,16.8,8.2,2.0,45,25,8,30.15,29.64,37,9,42,0.00
2013-2-18,45.1,30.9,16.9,19.4,10.2,1.9,76,46,17,30.34,29.83,17,2,27,0.00
2013-2-19,41.4,27.4,14.7,15.2,10.3,4.3,70,50,30,30.34,30.07,12,2,15,0.00
2013-2-20,38.4,25.4,18.6,23.5,15.4,10.4,83,67,42,30.08,29.88,11,3,14,0.00
2013-2-21,30.9,20.4,14.3,19.5,13.8,9.3,83,76,59,30.24,30.01,6,1,10,0.23
2013-2-22,36.0,21.8,8.9,20.5,12.9,4.3,84,70,50,30.33,30.17,9,1,12,0.01
2013-2-23,39.5,25.5,10.3,24.8,14.5,5.1,83,64,41,30.17,29.92,11,1,19,0.00
2013-2-24,29.3,25.9,18.9,26.6,22.3,15.4,92,86,83,30.39,29.99,25,5,29,0.07
2013-2-25,36.2,21.5,6.2,22.3,13.4,1.6,87,72,52,30.41,30.17,6,0,7,0.05
2013-2-26,38.0,25.7,11.9,26.3,16.8,6.6,85,70,47,30.44,30.14,25,5,27,0.03
2013-2-27,37.3,24.7,10.7,15.3,9.8,3.1,77,55,31,30.54,30.44,11,1,14,0.00
2013-2-28,40.9,27.1,10.1,20.1,11.3,3.3,78,54,28,30.59,30.48,8,0,14,0.00
2013-3-1,43.6,32.6,19.6,25.7,18.7,11.5,74,58,40,30.57,30.47,8,0,12,0.00
2013-3-2,57.2,38.9,22.9,33.6,25.4,16.7,79,61,34,30.54,30.18,7,1,11,0.00
2013-3-3,62.6,47.6,34.8,28.9,26.2,20.9,77,46,21,30.18,29.72,26,4,38,0.00
2013-3-4,46.6,30.1,14.6,26.6,20.7,9.2,82,69,44,30.47,29.72,11,2,19,0.08
2013-3-5,41.3,24.3,9.5,21.9,13.9,4.5,83,66,41,30.63,30.46,11,1,12,0.00
2013-3-6,56.9,36.0,20.2,33.5,23.5,15.3,82,63,36,30.46,30.04,9,0,10,0.00
2013-3-7,64.4,45.2,29.2,33.2,26.6,22.0,79,53,20,30.13,29.99,12,1,14,0.00
2013-3-8,49.1,36.9,29.2,32.8,27.8,22.9,83,70,53,30.06,29.84,9,1,13,0.00
2013-3-9,35.5,32.0,26.2,30.4,26.4,14.2,88,80,56,30.32,29.79,17,3,26,0.19
2013-3-10,45.9,32.4,16.1,24.3,17.7,8.8,80,56,35,30.41,30.23,12,2,19,0.00
2013-3-11,61.5,39.9,26.8,29.9,24.1,18.4,87,58,23,30.29,30.02,21,3,33,0.00
2013-3-12,37.1,29.7,24.8,27.6,23.6,19.6,92,78,64,30.51,30.29,10,1,13,0.19
2013-3-13,63.7,42.3,25.0,36.5,29.1,20.6,86,63,28,30.53,30.35,9,1,12,0.00
2013-3-14,74.6,53.3,36.2,36.0,29.4,23.0,71,45,15,30.39,30.13,11,1,18,0.00
2013-3-15,80.5,61.3,42.8,33.6,27.6,23.2,62,30,13,30.12,29.78,23,5,39,0.00
2013-3-16,56.4,46.4,34.0,33.5,30.0,27.1,77,54,34,29.97,29.82,11,2,18,0.00
2013-3-17,60.9,41.6,30.2,33.4,24.3,7.9,79,54,21,29.96,29.63,37,7,40,0.00
2013-3-18,54.8,40.1,26.3,17.8,11.0,2.4,52,31,18,30.06,29.96,34,8,46,0.00
2013-3-19,58.4,41.9,25.2,17.1,7.0,-6.0,64,27,8,30.50,30.06,22,5,26,0.00
2013-3-20,49.6,33.3,17.5,22.4,17.8,12.2,82,56,32,30.49,29.94,6,0,15,0.00
2013-3-21,56.4,40.8,30.7,36.9,21.3,4.2,71,48,23,29.95,29.66,24,3,33,0.01
2013-3-22,43.8,31.3,22.0,26.9,18.3,9.7,92,61,34,30.16,29.86,17,2,22,0.00
2013-3-23,25.7,19.4,9.2,23.1,14.9,4.5,92,83,79,30.54,30.15,22,3,26,0.05
2013-3-24,32.8,17.6,3.1,16.9,9.2,-2.0,83,70,49,30.61,30.51,11,1,18,0.26
2013-3-25,35.3,24.9,17.1,16.7,12.9,10.1,81,62,38,30.62,30.50,9,1,15,0.00
2013-3-26,42.9,30.5,15.7,26.5,18.2,8.4,79,61,41,30.51,30.19,10,1,13,0.00
2013-3-27,54.0,40.4,27.9,34.9,29.1,22.9,85,66,39,30.29,30.18,10,1,16,0.00
2013-3-28,63.9,45.0,29.3,36.2,30.4,25.3,88,62,28,30.24,30.15,12,1,24,0.00
2013-3-29,70.1,49.7,35.2,37.0,31.3,28.0,78,53,25,30.21,30.06,20,3,27,0.00
2013-3-30,70.0,48.2,34.1,37.4,31.3,26.3,82,56,23,30.29,30.04,28,3,36,0.00
2013-3-31,70.0,48.4,28.9,36.4,28.8,23.9,89,54,22,30.28,30.00,12,1,14,0.00
2013-4-1,54.8,41.3,28.3,32.9,28.2,21.7,77,60,42,30.24,30.09,9,1,13,0.00
2013-4-2,40.3,38.0,36.0,35.1,31.8,29.3,88,79,68,30.30,30.19,9,2,13,0.27
2013-4-3,63.3,46.2,36.1,40.3,34.3,26.7,89,67,32,30.30,30.14,13,1,21,0.00
2013-4-4,69.5,53.3,34.1,37.9,32.3,28.0,85,49,23,30.22,29.99,10,1,18,0.00
2013-4-5,76.9,57.3,44.6,37.5,32.2,27.3,65,42,18,29.99,29.64,31,6,46,0.00
2013-4-6,67.7,52.2,35.6,34.8,28.0,22.0,65,41,21,29.92,29.79,18,2,20,0.00
2013-4-7,67.4,53.2,36.6,36.9,30.7,22.2,82,46,20,29.87,29.67,23,3,33,0.00
2013-4-8,65.2,44.7,26.8,36.4,30.4,22.0,82,60,31,29.89,29.41,45,6,48,0.00
2013-4-9,26.6,19.7,12.8,21.8,12.5,6.1,82,73,63,30.56,29.90,16,7,24,0.01
2013-4-10,27.9,19.3,8.1,18.3,10.8,2.9,80,70,54,30.56,30.26,11,2,13,0.10
2013-4-11,57.2,35.3,17.9,34.7,24.1,12.5,80,66,35,30.26,30.01,17,1,21,0.01
2013-4-12,56.6,43.3,35.2,33.1,30.1,27.5,77,61,38,30.10,29.97,19,2,29,0.00
2013-4-13,68.4,48.9,29.7,37.5,29.7,24.6,87,54,22,30.06,29.44,25,4,38,0.02
2013-4-14,51.6,43.4,35.2,37.8,18.6,7.2,82,40,17,29.83,29.55,40,13,44,0.13
2013-4-15,38.8,27.9,23.1,25.5,21.3,16.2,85,78,40,30.30,29.82,10,1,19,0.09
2013-4-16,32.4,27.2,22.7,27.0,23.0,18.8,92,84,80,30.30,30.15,13,2,19,0.07
2013-4-17,29.7,26.4,18.9,26.5,22.2,13.4,89,84,74,30.45,30.19,12,1,14,0.07
2013-4-18,38.5,24.3,9.6,19.2,13.4,5.2,92,65,42,30.48,30.41,10,1,12,0.44
2013-4-19,55.3,37.1,17.7,31.7,20.8,10.5,77,54,27,30.45,30.13,13,1,14,0.00
2013-4-20,56.3,45.2,31.5,35.4,30.2,24.3,78,57,38,30.13,30.00,10,1,15,0.00
2013-4-21,66.3,48.2,31.3,36.1,29.9,23.5,85,54,22,30.15,30.02,12,1,22,0.00
2013-4-22,48.6,34.0,23.2,37.8,26.4,19.3,92,75,46,30.52,29.93,23,4,31,0.06
2013-4-23,35.4,26.1,18.8,21.7,17.6,14.6,86,71,49,30.58,30.45,9,1,13,0.46
2013-4-24,56.0,37.9,20.9,31.1,21.1,14.2,79,55,24,30.46,30.34,9,1,14,0.00
2013-4-25,62.9,44.9,27.8,33.4,25.2,19.3,73,49,24,30.34,30.01,14,1,14,0.00
2013-4-26,69.8,54.8,36.4,31.7,24.9,18.0,64,35,16,30.23,30.09,13,2,16,0.00
2013-4-27,75.7,57.2,34.2,36.8,26.7,21.6,70,36,14,30.22,30.00,10,1,14,0.00
2013-4-28,81.5,63.0,41.9,40.6,31.8,22.0,66,34,16,30.01,29.74,20,2,30,0.00
2013-4-29,81.4,66.2,45.5,40.2,33.6,24.9,68,34,15,29.84,29.45,34,5,38,0.00
2013-4-30,67.6,51.0,34.2,39.5,34.0,26.8,86,55,22,30.06,29.47,26,3,29,0.26
2013-5-1,34.0,29.8,22.5,30.2,26.2,18.6,89,86,82,30.90,30.05,11,1,19,0.41
2013-5-2,46.2,33.0,19.2,28.1,21.5,15.7,87,65,34,31.02,30.67,6,1,9,0.27
2013-5-3,60.9,45.3,26.3,33.7,27.1,20.9,82,53,29,30.67,30.22,7,1,13,0.00
2013-5-4,60.9,48.2,34.8,35.3,28.9,22.7,72,49,31,30.31,30.18,9,1,14,0.00
2013-5-5,60.6,47.2,35.2,37.1,27.9,20.9,65,48,30,30.31,30.16,12,2,15,0.00
2013-5-6,67.2,53.1,40.1,38.2,34.1,28.7,76,51,28,30.17,29.92,13,2,16,0.00
2013-5-7,71.7,53.6,40.9,46.2,39.2,31.8,84,61,30,30.01,29.86,17,2,22,0.23
2013-5-8,64.0,50.4,42.0,45.7,41.9,36.4,86,75,38,30.13,29.95,23,3,26,0.41
2013-5-9,61.6,50.4,42.6,47.4,41.8,37.1,87,73,48,30.24,30.12,18,2,26,0.15
2013-5-10,69.8,53.8,38.8,43.9,38.4,34.0,87,59,32,30.35,30.21,15,2,22,0.00
2013-5-11,69.5,55.4,40.5,47.4,40.0,33.8,81,58,34,30.41,30.20,12,1,16,0.00
2013-5-12,79.6,64.1,45.4,47.6,39.7,34.3,77,45,21,30.23,30.00,7,1,11,0.00
2013-5-13,86.8,68.8,50.0,49.3,42.3,36.5,67,41,20,30.06,29.88,10,1,13,0.00
2013-5-14,86.5,70.4,51.0,50.6,42.3,38.3,69,38,20,29.87,29.74,28,3,37,0.00
2013-5-15,80.4,65.1,52.5,52.6,44.2,38.9,77,50,24,29.86,29.72,23,2,31,0.00
2013-5-16,83.7,65.9,51.0,50.3,45.2,37.2,81,52,21,29.83,29.67,34,3,36,0.00
2013-5-17,86.6,69.4,50.1,49.8,41.1,25.2,75,41,14,29.77,29.56,20,3,23,0.00
2013-5-18,77.7,65.0,52.1,43.8,35.6,22.4,57,35,19,29.74,29.61,28,3,36,0.00
2013-5-19,71.6,58.2,44.1,42.3,34.8,28.6,71,44,22,29.79,29.66,18,2,22,0.01
2013-5-20,66.5,56.0,47.0,47.2,40.5,35.7,84,57,40,30.00,29.79,27,3,28,0.05
2013-5-21,70.9,57.0,40.5,42.3,36.6,32.3,85,51,25,30.05,29.84,12,1,15,0.00
2013-5-22,75.5,58.4,40.8,49.4,39.5,32.5,79,53,27,30.04,29.82,15,1,24,0.05
2013-5-23,69.3,57.1,47.9,51.5,45.7,42.6,87,67,47,30.07,29.90,14,1,19,0.00
2013-5-24,84.9,63.9,44.6,53.8,45.3,35.9,87,57,19,29.96,29.81,11,2,14,0.00
2013-5-25,85.6,69.8,50.0,54.9,46.0,30.1,81,48,14,29.88,29.68,7,1,14,0.00
2013-5-26,84.9,69.1,51.5,51.0,39.3,27.0,66,37,13,29.77,29.68,18,2,30,0.00
2013-5-27,83.2,67.3,48.9,44.8,36.4,29.3,63,36,15,29.74,29.57,22,2,28,0.00
2013-5-28,81.2,63.8,48.3,49.9,41.6,35.4,71,46,23,29.72,29.42,12,1,19,0.00
2013-5-29,64.2,54.5,47.0,49.7,43.2,34.9,88,67,41,29.70,29.49,20,2,31,0.42
2013-5-30,73.2,59.5,45.3,41.2,33.0,28.0,68,40,20,29.82,29.64,39,8,45,0.00
2013-5-31,74.9,61.0,45.7,35.1,27.9,18.7,57,31,15,29.97,29.78,24,5,28,0.00
2013-6-1,72.6,58.7,45.1,43.6,37.3,32.4,72,47,29,30.19,29.97,14,1,22,0.00
2013-6-2,84.9,62.9,42.6,46.3,38.2,31.2,69,44,19,30.19,29.73,8,1,9,0.00
2013-6-3,90.3,69.7,46.4,51.1,39.1,27.0,75,38,15,29.78,29.58,35,5,42,0.00
2013-6-4,72.0,60.2,50.9,54.2,44.7,31.0,80,58,36,30.16,29.78,18,2,33,0.06
2013-6-5,62.5,52.8,46.6,48.6,43.6,39.9,82,71,57,30.21,30.12,8,1,11,0.00
2013-6-6,81.8,61.8,41.6,52.2,42.9,38.0,90,56,25,30.16,29.98,6,1,13,0.00
2013-6-7,82.5,64.9,48.9,51.3,44.5,37.9,69,50,28,30.05,29.68,11,1,16,0.00
2013-6-8,79.2,65.9,52.4,50.6,44.7,40.6,70,48,31,29.94,29.63,22,2,24,0.00
2013-6-9,87.0,68.4,48.3,52.3,43.9,38.4,76,46,20,29.95,29.78,7,1,17,0.00
2013-6-10,96.0,74.9,52.8,55.2,46.0,39.0,67,40,16,29.78,29.62,14,1,17,0.00
2013-6-11,98.2,77.9,52.7,57.4,39.1,26.5,69,30,9,29.76,29.55,31,5,35,0.00
2013-6-12,89.9,74.2,51.6,53.6,40.8,29.9,66,33,16,29.95,29.77,17,2,29,0.00
2013-6-13,83.6,66.7,56.2,58.1,53.0,47.9,80,63,39,29.95,29.71,11,2,17,0.01
2013-6-14,87.8,71.9,54.0,56.0,47.2,38.8,78,46,18,29.84,29.70,23,2,27,0.00
2013-6-15,80.5,68.5,51.0,54.2,49.1,43.3,82,52,34,29.93,29.80,14,1,18,0.00
2013-6-16,80.1,68.5,53.4,57.2,49.0,38.3,87,53,26,30.01,29.88,31,3,37,0.00
2013-6-17,78.7,66.1,49.5,56.6,49.3,40.5,83,56,36,30.06,29.91,13,2,21,0.00
2013-6-18,82.7,68.5,54.2,56.7,50.2,45.2,80,55,30,30.03,29.74,12,2,23,0.00
2013-6-19,92.8,72.0,52.4,58.0,44.8,22.8,81,44,12,29.87,29.48,12,2,22,0.00
2013-6-20,87.5,71.9,50.3,52.4,41.4,30.4,73,37,15,29.76,29.58,9,1,14,0.00
2013-6-21,89.4,74.1,55.0,59.0,46.8,36.0,68,41,17,29.75,29.56,14,2,17,0.00
2013-6-22,85.6,69.2,52.4,57.3,48.4,41.5,75,50,23,29.79,29.57,12,2,25,0.00
2013-6-23,81.0,66.3,49.3,52.5,47.6,42.1,84,54,28,29.93,29.69,12,1,18,0.00
2013-6-24,85.7,72.4,53.6,53.3,44.5,29.8,78,41,18,29.81,29.57,14,2,20,0.00
2013-6-25,90.9,77.5,57.5,48.9,40.7,31.9,53,28,18,29.79,29.62,18,4,26,0.00
2013-6-26,93.5,75.1,54.5,54.0,45.8,39.6,68,39,16,29.90,29.79,11,1,15,0.00
2013-6-27,94.7,80.4,62.0,57.6,46.7,38.5,56,33,17,30.01,29.87,12,1,18,0.00
2013-6-28,91.8,75.2,63.2,63.5,54.1,46.2,81,50,29,30.06,29.88,20,3,29,0.06
2013-6-29,84.0,70.9,57.0,60.8,56.1,52.0,87,62,40,30.06,29.93,10,1,14,0.04
2013-6-30,80.5,69.6,62.0,60.1,54.5,52.3,72,60,43,30.05,29.97,15,3,19,0.01
2013-7-1,80.1,67.6,56.7,59.2,53.2,49.7,80,61,43,30.17,30.05,13,2,17,0.00
2013-7-2,82.6,68.3,53.9,56.8,50.8,45.9,83,57,31,30.15,29.99,14,1,18,0.00
2013-7-3,85.8,71.4,53.5,54.5,48.7,44.7,79,47,28,30.00,29.75,20,2,20,0.00
2013-7-4,90.8,74.8,54.3,57.5,50.1,43.9,76,45,25,29.83,29.69,17,2,21,0.00
2013-7-5,85.1,72.0,62.7,57.7,53.2,46.6,76,53,35,29.73,29.63,23,2,23,0.00
2013-7-6,90.6,73.4,59.5,59.9,53.4,49.2,80,53,25,29.78,29.68,27,4,33,0.00
2013-7-7,90.2,73.5,61.7,62.8,55.8,48.7,75,55,31,30.11,29.76,29,3,36,0.04
2013-7-8,89.7,73.3,59.9,62.3,55.1,47.5,82,56,28,29.92,29.83,36,2,46,0.04
2013-7-9,94.3,77.1,60.7,59.7,49.9,43.0,70,42,19,30.01,29.90,12,1,17,0.00
2013-7-10,90.1,74.7,57.6,62.3,55.0,46.1,74,52,34,30.04,29.79,13,2,17,0.00
2013-7-11,98.2,78.1,58.0,62.0,54.6,47.6,82,48,19,29.91,29.60,22,3,27,0.00
2013-7-12,90.0,73.2,65.5,61.1,56.2,50.0,80,57,31,29.88,29.67,31,3,40,0.07
2013-7-13,86.5,71.2,62.4,63.5,59.6,55.1,86,69,39,30.03,29.85,26,1,30,0.04
2013-7-14,84.2,69.7,57.7,62.0,58.3,52.8,87,69,43,30.10,29.94,11,2,16,0.00
2013-7-15,79.1,70.3,63.9,64.3,60.0,47.8,88,71,52,30.05,29.93,14,1,25,0.00
2013-7-16,84.9,70.2,54.9,57.1,50.4,45.9,75,52,31,30.07,29.98,13,2,22,0.00
2013-7-17,89.1,72.9,59.0,59.7,55.0,47.3,82,57,25,30.07,29.89,9,1,13,0.00
2013-7-18,91.3,73.6,62.6,60.9,54.8,50.5,78,54,29,29.98,29.84,30,5,36,0.08
2013-7-19,82.3,72.2,62.0,61.2,57.6,55.3,83,62,44,30.02,29.90,11,3,17,0.04
2013-7-20,86.7,70.4,56.9,61.5,55.1,49.1,86,61,33,29.92,29.77,16,1,38,0.00
2013-7-21,85.9,70.2,56.5,63.6,56.2,48.4,81,63,41,29.86,29.71,13,1,17,0.00
2013-7-22,90.2,74.8,55.3,62.0,53.9,46.3,82,51,26,29.84,29.72,10,1,16,0.00
2013-7-23,87.3,72.3,57.9,60.1,51.7,33.8,64,49,33,29.98,29.74,11,2,14,0.00
2013-7-24,82.2,71.4,61.7,63.9,56.3,49.9,76,60,39,30.07,29.85,23,4,33,0.00
2013-7-25,77.0,65.6,57.6,59.4,54.3,51.4,84,68,46,30.14,29.92,16,2,21,0.01
2013-7-26,86.0,70.3,55.3,58.7,51.9,45.8,80,55,27,30.18,29.97,15,2,20,0.00
2013-7-27,75.9,64.4,52.4,58.4,53.0,46.7,83,68,49,30.03,29.92,10,2,16,0.01
2013-7-28,72.3,63.4,59.0,61.4,56.6,54.1,87,79,60,30.01,29.82,10,1,14,0.03
2013-7-29,70.7,62.8,58.1,60.5,56.8,52.1,92,81,56,30.09,29.85,16,2,24,0.11
2013-7-30,87.6,71.5,58.1,58.4,53.7,49.9,82,57,29,30.15,30.00,12,1,20,0.00
2013-7-31,90.3,71.8,55.8,61.7,53.9,48.9,87,57,26,30.17,29.97,12,1,18,0.02
2013-8-1,85.1,70.8,56.2,63.6,55.1,46.9,87,60,30,30.08,29.81,12,0,18,0.00
2013-8-2,93.8,75.8,59.0,61.0,53.3,48.2,78,50,23,29.86,29.76,11,1,24,0.00
2013-8-3,90.7,70.4,60.9,64.0,58.0,52.4,87,67,33,30.11,29.82,20,2,35,0.13
2013-8-4,87.8,71.4,55.3,64.7,54.9,49.9,84,59,33,30.06,29.92,15,2,19,0.00
2013-8-5,88.3,70.3,55.6,58.2,53.1,47.4,83,57,30,29.93,29.85,23,2,32,0.00
2013-8-6,85.9,70.1,54.4,58.1,51.1,44.7,84,54,28,29.90,29.83,24,2,27,0.00
2013-8-7,74.3,66.6,60.1,57.3,53.2,47.9,82,63,46,29.97,29.88,15,2,20,0.00
2013-8-8,76.7,64.8,58.5,59.3,55.7,49.5,88,74,50,30.08,29.91,12,1,14,0.13
2013-8-9,77.5,64.8,52.5,57.0,51.4,47.2,89,65,41,30.12,30.04,26,2,27,0.00
2013-8-10,86.0,68.6,50.6,59.0,49.9,44.6,85,55,25,30.14,29.96,13,1,18,0.00
2013-8-11,82.9,69.9,57.7,55.9,50.5,46.7,76,53,30,30.05,29.96,14,1,17,0.00
2013-8-12,83.0,67.6,54.9,58.9,52.4,47.9,82,60,34,30.15,29.98,18,2,27,0.01
2013-8-13,78.3,66.3,54.8,55.3,50.7,47.5,78,58,39,30.13,30.02,21,3,28,0.00
2013-8-14,82.8,65.4,52.4,59.3,51.2,46.4,85,62,29,30.13,29.97,11,2,18,0.08
2013-8-15,87.0,65.7,49.0,58.1,49.7,42.8,82,59,30,30.09,29.99,10,1,12,0.00
2013-8-16,89.0,71.3,52.1,56.7,49.4,44.1,79,50,22,30.07,29.94,6,1,10,0.00
2013-8-17,92.2,73.4,56.7,61.2,49.9,35.5,79,48,14,30.01,29.82,6,0,10,0.00
2013-8-18,92.4,73.5,53.8,59.6,50.8,41.0,77,48,22,29.97,29.85,15,2,28,0.00
2013-8-19,93.6,74.1,53.7,59.6,49.7,42.6,75,46,19,29.95,29.81,9,1,10,0.00
2013-8-20,95.1,75.5,54.9,59.6,48.8,39.5,73,44,15,29.86,29.75,10,1,14,0.00
2013-8-21,89.3,74.6,62.6,58.8,51.4,42.7,68,46,25,29.96,29.84,19,2,25,0.00
2013-8-22,81.9,70.5,58.8,61.5,56.5,51.4,82,62,42,30.06,29.93,14,1,15,0.17
2013-8-23,86.3,70.3,59.0,62.3,56.3,49.7,87,64,37,30.04,29.79,17,2,27,0.02
2013-8-24,88.7,71.7,55.0,59.8,53.1,48.2,83,54,32,29.94,29.84,26,3,33,0.02
2013-8-25,88.2,72.9,56.9,59.3,53.5,49.0,78,53,30,29.98,29.89,23,2,33,0.00
2013-8-26,88.5,72.8,59.0,60.8,55.8,52.4,81,58,32,29.98,29.89,21,3,29,0.01
2013-8-27,92.2,75.7,59.0,63.1,56.2,51.1,81,53,31,29.97,29.81,12,2,17,0.00
2013-8-28,90.1,76.6,60.2,61.3,53.1,45.7,77,47,28,29.92,29.83,16,2,20,0.00
2013-8-29,94.7,76.1,58.2,58.5,51.1,45.9,73,44,23,29.97,29.90,21,2,23,0.00
2013-8-30,88.0,73.5,60.0,62.0,53.8,47.8,76,53,30,30.00,29.90,17,1,23,0.00
2013-8-31,91.3,72.8,60.7,61.2,52.6,47.7,74,51,25,29.96,29.84,18,3,26,0.01
2013-9-1,77.1,68.7,60.6,60.5,56.0,48.5,81,65,52,30.05,29.94,9,1,12,0.00
2013-9-2,90.8,71.3,56.1,63.0,55.8,49.2,86,61,32,30.03,29.84,7,0,11,0.00
2013-9-3,91.6,76.2,58.1,61.2,53.7,49.1,79,49,25,29.95,29.84,14,1,21,0.00
2013-9-4,88.8,73.1,61.4,62.9,54.9,51.5,76,55,31,30.02,29.91,16,2,27,0.00
2013-9-5,91.7,74.0,60.1,60.7,55.6,50.7,76,55,31,30.05,29.91,10,1,12,0.00
2013-9-6,94.7,75.9,62.2,58.9,53.2,47.1,75,49,23,29.97,29.84,22,2,27,0.00
2013-9-7,90.5,73.6,57.2,59.6,52.2,48.2,79,51,25,29.94,29.81,7,0,12,0.00
2013-9-8,87.6,70.9,54.4,61.7,51.7,46.6,78,53,29,29.88,29.70,16,1,18,0.00
2013-9-9,81.7,65.4,55.6,60.6,53.9,48.5,88,69,40,29.96,29.73,25,2,40,0.95
2013-9-10,65.2,60.4,57.8,58.9,56.4,54.5,91,87,75,30.15,29.94,5,0,9,0.26
2013-9-11,64.2,61.3,59.5,61.2,58.4,56.3,92,90,88,30.17,30.12,13,1,19,1.18
2013-9-12,63.0,60.8,59.0,61.5,58.8,56.9,95,93,92,30.24,30.14,13,1,18,1.66
2013-9-13,74.2,63.3,58.4,62.3,58.6,56.2,95,86,62,30.14,29.81,10,0,11,0.22
2013-9-14,74.6,64.2,55.2,61.7,56.2,51.8,90,76,54,29.95,29.78,14,2,20,0.00
2013-9-15,60.8,57.4,53.6,55.3,53.8,51.6,93,88,80,30.26,29.94,12,1,19,1.11
2013-9-16,71.0,59.3,53.5,59.2,54.3,51.5,95,85,62,30.25,30.00,3,0,7,0.10
2013-9-17,83.2,64.9,49.5,61.5,50.6,43.9,95,65,27,30.03,29.73,7,0,13,0.01
2013-9-18,85.5,67.1,55.7,56.6,48.7,42.7,82,54,31,29.78,29.64,24,3,35,0.04
2013-9-19,65.2,57.7,48.3,50.5,44.6,39.8,82,63,43,30.17,29.78,11,1,18,0.03
2013-9-20,71.6,56.5,45.0,50.5,44.0,39.1,87,66,35,30.20,30.03,6,0,12,0.00
2013-9-21,80.1,61.6,45.0,56.7,47.4,40.7,87,63,28,30.03,29.73,5,0,13,0.00
2013-9-22,78.4,61.7,49.5,56.3,48.4,42.2,81,64,35,29.73,29.49,28,2,38,0.01
2013-9-23,67.9,57.2,45.2,50.2,41.5,33.4,89,60,31,30.02,29.48,29,6,34,0.45
2013-9-24,76.0,55.5,41.3,48.1,40.3,34.1,82,60,28,30.15,29.85,7,1,11,0.00
2013-9-25,78.7,58.4,41.8,53.6,43.9,35.2,80,61,35,29.85,29.41,11,1,14,0.00
2013-9-26,69.5,55.2,45.0,47.9,43.4,40.1,84,66,44,29.76,29.52,8,1,14,0.00
2013-9-27,54.4,47.2,41.0,49.0,43.0,37.7,90,86,78,30.09,29.72,9,1,15,0.14
2013-9-28,68.5,49.1,34.2,43.7,36.5,31.3,90,66,33,30.26,30.08,4,0,10,0.01
2013-9-29,73.3,56.0,38.0,45.4,35.9,28.0,84,52,22,30.18,29.89,20,2,28,0.00
2013-9-30,80.5,63.3,51.7,53.6,41.0,30.4,62,45,22,29.90,29.67,21,2,33,0.00
2013-10-1,71.3,57.3,44.0,49.5,40.9,34.3,77,56,34,30.07,29.81,6,1,12,0.00
2013-10-2,75.4,57.6,42.0,49.3,41.9,37.6,87,60,26,29.97,29.84,7,1,16,0.00
2013-10-3,61.1,50.5,38.6,46.2,40.4,33.6,87,69,50,29.92,29.75,11,1,14,0.05
2013-10-4,46.3,38.7,30.7,42.6,31.6,23.1,88,76,53,30.34,29.82,22,5,29,0.26
2013-10-5,64.3,43.3,28.3,32.6,25.7,18.5,84,57,19,30.40,30.26,18,2,23,0.14
2013-10-6,69.3,48.1,31.4,41.7,32.7,24.6,81,59,29,30.39,30.27,6,0,10,0.00
2013-10-7,73.9,52.3,33.4,44.1,37.4,29.3,89,62,27,30.27,29.93,4,0,9,0.00
2013-10-8,75.3,56.5,44.4,48.3,38.7,32.5,76,55,21,29.93,29.71,8,0,15,0.00
2013-10-9,62.8,52.1,40.5,43.7,39.6,34.1,81,64,44,30.00,29.78,10,1,13,0.00
2013-10-10,57.7,50.3,43.9,46.5,42.0,35.5,85,73,55,29.98,29.55,19,2,30,0.02
2013-10-11,65.1,54.8,43.1,38.1,33.0,28.5,73,45,32,30.06,29.50,33,7,39,0.00
2013-10-12,54.9,45.9,38.4,40.5,36.7,33.0,82,71,55,30.24,30.07,9,1,11,0.00
2013-10-13,59.8,46.8,35.3,43.1,37.8,30.3,86,72,51,30.26,29.95,10,0,12,0.00
2013-10-14,52.0,45.2,40.2,41.5,36.3,32.1,85,72,54,30.27,29.87,13,1,19,0.01
2013-10-15,46.1,39.8,36.1,32.5,27.0,22.5,72,60,49,30.44,30.27,11,1,15,0.00
2013-10-16,54.6,38.9,27.5,33.7,27.1,21.8,83,64,36,30.37,30.16,6,0,9,0.00
2013-10-17,45.5,39.4,31.4,31.8,28.9,25.2,80,67,53,30.30,30.19,12,0,14,0.00
2013-10-18,46.3,36.8,29.3,33.5,27.9,23.7,88,72,46,30.36,30.24,10,1,18,0.10
2013-10-19,63.6,44.4,27.9,34.8,28.2,23.4,84,58,24,30.30,30.01,5,0,14,0.06
2013-10-20,47.5,40.1,31.6,36.1,31.4,27.9,86,72,52,30.28,29.97,13,1,19,0.08
2013-10-21,59.9,42.5,28.3,41.6,30.1,25.2,93,66,30,30.38,30.23,10,1,13,0.05
2013-10-22,64.7,47.8,33.1,36.9,32.1,27.1,84,57,31,30.33,30.18,7,1,11,0.00
2013-10-23,63.6,47.1,33.3,37.7,32.7,28.0,83,61,32,30.32,30.19,12,1,13,0.00
2013-10-24,54.3,41.8,32.1,38.5,33.0,27.2,85,72,53,30.39,30.29,9,1,10,0.00
2013-10-25,68.6,47.0,30.3,40.1,33.1,26.6,91,63,27,30.37,30.20,4,0,9,0.00
2013-10-26,62.8,45.9,32.1,38.7,32.8,26.3,84,63,34,30.44,30.22,9,1,10,0.00
2013-10-27,73.1,50.3,31.2,38.8,30.3,26.0,88,53,20,30.22,29.89,22,2,24,0.00
2013-10-28,49.2,37.4,31.8,31.7,29.7,27.3,92,76,45,30.21,29.92,15,2,22,0.05
2013-10-29,37.9,34.4,32.1,32.7,30.6,29.3,91,86,77,30.24,30.10,5,0,9,0.04
2013-10-30,42.8,35.0,30.8,39.7,31.1,27.3,91,86,76,30.14,30.00,6,0,10,0.05
2013-10-31,55.7,40.3,26.9,33.9,26.4,22.0,90,62,28,30.04,29.97,22,3,32,0.10
2013-11-1,53.2,41.4,30.1,34.3,27.5,22.8,78,59,39,30.37,30.03,11,1,15,0.00
2013-11-2,59.0,39.8,24.4,34.2,25.6,19.2,85,60,30,30.38,29.90,6,0,12,0.00
2013-11-3,70.4,49.0,33.1,30.8,26.2,20.7,73,46,16,29.90,29.60,27,5,33,0.00
2013-11-4,42.1,35.4,27.9,27.9,20.3,15.2,82,56,35,30.14,29.88,15,3,22,0.00
2013-11-5,47.5,34.5,21.9,24.0,17.1,6.5,70,51,25,30.34,30.11,12,2,18,0.00
2013-11-6,57.0,36.5,21.7,23.4,17.1,11.4,71,48,23,30.54,30.33,18,2,20,0.00
2013-11-7,54.7,39.1,25.7,29.6,23.1,17.0,73,54,32,30.57,30.15,9,1,15,0.00
2013-11-8,65.0,52.2,33.4,30.5,24.0,18.9,67,36,21,30.15,29.87,39,7,47,0.00
2013-11-9,55.4,44.9,34.4,33.5,28.0,21.2,72,52,31,30.35,30.03,11,2,16,0.00
2013-11-10,65.5,44.8,29.7,35.3,28.1,23.3,84,56,24,30.39,30.25,6,0,10,0.00
2013-11-11,61.2,39.6,31.5,33.7,26.7,23.3,77,62,30,30.82,30.29,18,2,21,0.00
2013-11-12,53.3,36.9,27.0,32.7,27.5,22.5,87,71,42,30.82,30.57,12,1,14,0.00
2013-11-13,66.9,45.6,26.2,32.3,25.4,19.0,82,50,22,30.57,30.11,7,0,11,0.00
2013-11-14,55.8,46.3,35.5,35.2,29.9,23.4,73,54,38,30.15,29.83,10,1,16,0.00
2013-11-15,66.7,44.8,30.6,31.5,25.8,19.9,80,53,18,29.83,29.56,28,6,36,0.00
2013-11-16,60.4,45.5,34.7,29.1,23.4,16.4,68,43,23,29.63,29.34,25,7,43,0.00
2013-11-17,58.6,42.1,30.9,26.7,19.8,15.0,71,44,19,30.20,29.61,40,6,52,0.00
2013-11-18,63.2,40.8,22.9,27.3,19.6,14.0,76,46,18,30.32,30.15,13,2,16,0.00
2013-11-19,56.5,42.3,27.9,32.0,23.9,16.8,69,50,32,30.15,29.84,19,2,34,0.00
2013-11-20,59.7,44.8,28.6,29.9,25.9,19.1,69,49,28,30.15,29.83,21,2,33,0.00
2013-11-21,28.2,17.3,14.8,20.3,10.5,6.3,80,74,65,30.97,30.15,11,4,14,0.00
2013-11-22,34.0,23.8,14.0,21.3,15.3,8.4,81,71,53,30.98,30.86,7,0,11,0.08
2013-11-23,38.4,28.7,23.6,22.8,18.7,11.1,82,67,50,30.94,30.58,10,1,15,0.09
2013-11-24,34.2,27.0,20.4,24.4,20.0,14.3,83,75,65,30.57,30.25,7,1,12,0.02
2013-11-25,41.2,33.5,25.8,25.7,22.0,16.3,79,63,46,30.54,30.31,11,0,11,0.01
2013-11-26,51.3,34.4,24.1,27.6,21.3,17.6,83,62,32,30.63,30.47,7,1,10,0.01
2013-11-27,61.2,37.7,20.2,30.8,23.2,15.3,85,60,26,30.46,30.22,6,0,6,0.00
2013-11-28,46.6,32.9,24.0,28.1,22.8,19.0,83,68,47,30.40,30.31,10,1,12,0.00
2013-11-29,65.4,42.4,25.6,32.7,24.2,18.3,84,54,20,30.35,30.24,17,2,21,0.00
2013-11-30,57.8,38.5,26.2,28.4,21.9,18.4,80,54,25,30.33,30.22,10,0,13,0.00
2013-12-1,55.8,43.2,28.1,27.0,22.8,17.9,71,47,28,30.32,29.96,33,4,33,0.00
2013-12-2,62.1,51.9,45.5,27.1,23.7,19.8,41,33,23,29.97,29.55,33,13,45,0.00
2013-12-3,55.5,34.3,11.2,28.2,17.8,5.4,78,54,33,29.97,29.47,30,6,38,0.00
2013-12-4,12.1,7.2,0.4,5.2,0.5,-6.0,79,73,66,30.59,29.97,9,3,11,0.00
2013-12-5,7.7,1.2,-9.0,0.0,-6.4,-15.0,82,69,56,30.72,30.57,10,3,12,0.00
2013-12-6,8.0,0.1,-5.0,-2.0,-7.2,-11.0,75,70,60,30.84,30.71,9,2,12,0.00
2013-12-7,8.1,1.8,-5.0,0.0,-4.7,-11.0,84,72,64,30.82,30.34,6,2,9,0.00
2013-12-8,17.3,7.3,0.9,4.7,0.1,-5.0,77,71,57,30.56,30.27,7,1,10,0.01
2013-12-9,25.5,9.9,-3.0,2.8,-2.5,-11.0,75,58,36,30.62,30.51,16,3,23,0.00
2013-12-10,44.4,28.0,12.4,18.6,9.0,-1.0,63,46,29,30.59,30.25,44,8,44,0.10
2013-12-11,26.8,17.5,8.7,15.3,9.7,3.1,80,71,60,30.72,30.54,10,1,14,0.01
2013-12-12,48.8,25.5,9.9,20.9,12.3,4.7,81,62,25,30.71,30.26,5,0,6,0.07
2013-12-13,48.6,29.3,14.9,23.8,15.9,8.7,79,60,26,30.42,30.12,11,0,15,0.01
2013-12-14,43.9,31.0,17.7,20.3,16.0,12.0,81,57,31,30.52,30.38,17,2,21,0.00
2013-12-15,59.2,38.9,24.0,24.3,17.5,14.3,71,45,23,30.43,30.24,21,3,28,0.00
2013-12-16,64.5,49.5,37.5,23.5,17.4,10.9,41,28,17,30.29,30.11,28,8,39,0.00
2013-12-17,58.3,42.3,26.9,24.9,18.1,13.7,63,39,25,30.42,30.16,17,2,23,0.00
2013-12-18,61.8,47.8,35.6,26.5,20.1,14.9,55,35,20,30.16,29.76,15,2,22,0.00
2013-12-19,43.1,33.1,16.7,25.1,18.8,11.0,81,57,39,30.09,29.66,16,3,21,0.00
2013-12-20,24.7,19.3,15.3,17.6,14.0,10.6,89,80,73,30.10,30.00,10,1,12,0.00
2013-12-21,32.9,21.7,11.7,22.0,15.7,7.2,85,78,54,30.24,29.92,9,1,13,0.00
2013-12-22,37.6,24.7,12.3,21.5,14.9,7.6,92,68,41,30.56,30.24,11,1,18,0.02
2013-12-23,34.9,23.4,13.1,21.9,16.3,8.1,83,74,58,30.60,30.39,7,0,11,0.01
2013-12-24,53.6,38.2,17.5,30.2,19.4,9.9,87,49,21,30.46,30.20,38,10,42,0.00
2013-12-25,44.2,27.4,15.0,17.8,11.3,6.8,78,54,24,30.66,30.44,14,1,17,0.00
2013-12-26,54.7,36.4,21.9,17.3,13.4,8.5,68,42,19,30.54,30.43,17,2,22,0.00
2013-12-27,57.3,34.4,20.7,25.1,18.3,12.8,76,56,26,30.50,30.25,3,0,6,0.00
2013-12-28,53.9,33.3,21.3,27.9,19.7,15.4,78,59,31,30.46,30.03,24,3,26,0.00
2013-12-29,36.1,23.1,7.1,20.7,11.8,1.4,82,63,40,30.50,30.21,12,1,17,0.04
2013-12-30,48.2,31.9,18.9,19.3,13.3,8.9,68,48,24,30.50,30.28,10,1,17,0.00
2013-12-31,59.8,43.5,25.4,24.6,19.8,13.7,63,41,25,30.33,30.01,33,7,37,0.00
2014-1-1,39.5,30.9,17.3,29.2,21.2,12.4,81,68,48,30.51,29.98,14,2,23,0.00
2014-1-2,40.4,25.9,15.9,24.1,17.2,11.1,84,71,43,30.59,30.32,7,1,11,0.01